ZIMSAT-1

Last updated on Fri May 12 2023 00:02:07 GMT+0000 (Coordinated Universal Time)

1 54537U 98067UP 23130.24145307 .01976085 11835-4 10968-2 0 9993 2 54537 51.6192 136.2593 0008791 4.1616 85.5453 16.18608743 24967

Satellite not in orbit

ZIMSAT-1